FLOCK 4H 25

导读

FLOCK 4H 25是美国发射的Flock系列卫星,于2025年11月28日成功进入太空,属于Planet Labs公司Flock 4H卫星群的成员,这类卫星通常以高分辨率对地观测为核心任务,可提供全球范围的遥感影像数据,服务于农业监测、城市规划、灾害评估与环境观测等多个领域,为地球科学研究和商业应用提供数据支撑,延续了Flock系列卫星星座持续补充观测能力的部署策略。

Basic Information
目录编号:
66728
目录名称:
FLOCK 4H 25
国际标识:
2025-276BQ
轨道中心:
EARTH
卫星名称:
FLOCK 4H 25
卫星全名:
FLOCK 4H 25
卫星状态:
在轨 (已飞行288 天)
发射日期:
2025-11-28 UTC
国别 :
美国 (US)
星等 :
--
This satellite is enrolled in the Space Conjunction Data Service (SCDS) and the current flight risk assessment level is: No High Risk
Orbit Information
数据来源 国际轨道数据
星历时间: 2026-09-12T01:38:58+0800
13小时前
查看轨道信息
半长轴: 6879.274km
偏心率: 0.0001482
轨道倾角: 97.413°
近地点辐角 70.689°
升交点赤经 327.184°
平近点角 289.451°
近地点: 500.117km
远地点: 502.157km
周期: 94.640分钟
每日圈数: 15.215593
Detailed Information
使用方式:
暂无
2D Orbit Map
3D Orbit Map
Orbit Altitude Analysis Chart
Orbit Inclination Analysis Chart
Orbit Comprehensive Analysis Chart
View Comprehensive Chart
Conjunction Data List
Event ID Objects TCA Miss Dist (km) Collision Risk Probability Collision Risk Index (CRI) Action
CDM_260912-145306-672806-900524
GEN1A-2 (69005)
2026-09-12T
14:53:35+0000
0.463 km
远距离
2.45275E-4 高风险 0.83
CDM_260913-134004-318006-672824
2026-09-13T
13:40:42+0000
1.964 km
极远距离
3.025972E-6 低风险 0.45
CDM_260912-131806-672806-900524
GEN1A-2 (69005)
2026-09-12T
13:18:52+0000
2.490 km
极远距离
1.789364E-6 低风险 0.4
CDM_260913-205306-672806-901322
CAS500-2 (69013)
2026-09-13T
20:53:01+0000
2.513 km
极远距离
1.760441E-6 低风险 0.4
CDM_260910-145905-110406-672822
2026-09-10T
14:59:12+0000
2.592 km
极远距离
1.615841E-6 低风险 0.39
CDM_260913-191806-672806-901323
CAS500-2 (69013)
2026-09-13T
19:18:16+0000
2.675 km
极远距离
1.58549E-6 低风险 0.39
Miss Distance Evolution Trend with All Objects
Collision Probability Evolution Trend with All Objects